| time (UTC) | temp F | wind direction | speed knots | gust knots | rain 1hr in | rain 24hr in | rain mn in | humidity % | barometer mb |
| 20260507153535 | 61 | 42 | 0.9 | 5.2 | 0.00 | 0.00 | 0.00 | 55 | 1019.0 |
| 20260507152522 | 61 | 41 | 0.9 | 6.1 | 0.00 | 0.00 | 0.00 | 54 | 1019.0 |
| 20260507151526 | 61 | 42 | 0.9 | 5.2 | 0.00 | 0.00 | 0.00 | 56 | 1019.2 |
| 20260507150533 | 60 | 19 | 0.0 | 6.1 | 0.00 | 0.00 | 0.00 | 59 | 1019.3 |
| 20260507145538 | 59 | 360 | 0.0 | 7.0 | 0.00 | 0.00 | 0.00 | 61 | 1019.4 |
| 20260507144542 | 59 | 25 | 0.9 | 7.0 | 0.00 | 0.00 | 0.00 | 61 | 1019.6 |
| 20260507143526 | 58 | 22 | 0.0 | 4.3 | 0.00 | 0.00 | 0.00 | 62 | 1019.6 |
| 20260507142533 | 58 | 22 | 1.7 | 7.0 | 0.00 | 0.00 | 0.00 | 62 | 1019.6 |
| 20260507141550 | 58 | 360 | 0.0 | 0.0 | 0.00 | 0.00 | 0.00 | 63 | 1019.7 |
| 20260507140543 | 57 | 26 | 0.0 | 2.6 | 0.00 | 0.00 | 0.00 | 66 | 1019.8 |
| 20260507135527 | 56 | 360 | 0.0 | 0.9 | 0.00 | 0.00 | 0.00 | 66 | 1019.9 |
| 20260507134535 | 56 | 26 | 0.0 | 0.0 | 0.00 | 0.00 | 0.00 | 68 | 1019.9 |
| 20260507133528 | 55 | 360 | 0.0 | 0.0 | 0.00 | 0.00 | 0.00 | 73 | 1019.9 |
| 20260507132543 | 53 | 360 | 0.0 | 0.9 | 0.00 | 0.00 | 0.00 | 77 | 1020.0 |
| 20260507131524 | 52 | 30 | 0.0 | 3.5 | 0.00 | 0.00 | 0.00 | 83 | 1019.9 |
| 20260507130534 | 51 | 25 | 0.0 | 2.6 | 0.00 | 0.00 | 0.00 | 85 | 1019.8 |
| 20260507125519 | 50 | 24 | 0.0 | 1.7 | 0.00 | 0.00 | 0.00 | 86 | 1019.7 |
| 20260507124520 | 48 | 26 | 0.0 | 0.0 | 0.00 | 0.00 | 0.00 | 86 | 1019.6 |
| 20260507123523 | 47 | 26 | 0.0 | 0.0 | 0.00 | 0.00 | 0.00 | 87 | 1019.4 |
| 20260507122534 | 45 | 26 | 0.0 | 0.9 | 0.00 | 0.00 | 0.00 | 87 | 1019.5 |
| 20260507121523 | 44 | 25 | 0.0 | 0.0 | 0.00 | 0.00 | 0.00 | 87 | 1019.3 |
| 20260507120553 | 43 | 26 | 0.0 | 0.0 | 0.00 | 0.00 | 0.00 | 86 | 1019.2 |
| 20260507115522 | 42 | 26 | 0.0 | 0.0 | 0.00 | 0.00 | 0.00 | 85 | 1019.2 |
| 20260507114536 | 42 | 26 | 0.0 | 0.0 | 0.00 | 0.00 | 0.00 | 86 | 1019.1 |
| 20260507113525 | 43 | 26 | 0.0 | 0.0 | 0.00 | 0.00 | 0.00 | 85 | 1019.2 |
| 20260507112531 | 43 | 26 | 0.0 | 0.0 | 0.00 | 0.00 | 0.00 | 85 | 1019.1 |
| 20260507111548 | 43 | 26 | 0.0 | 0.0 | 0.00 | 0.00 | 0.00 | 85 | 1019.1 |
| 20260507110538 | 44 | 26 | 0.0 | 0.0 | 0.00 | 0.00 | 0.00 | 85 | 1019.1 |
| 20260507105552 | 44 | 26 | 0.0 | 0.0 | 0.00 | 0.00 | 0.00 | 85 | 1019.2 |
| 20260507104521 | 45 | 26 | 0.0 | 0.0 | 0.00 | 0.00 | 0.00 | 85 | 1019.3 |
| 20260507103522 | 45 | 26 | 0.0 | 0.0 | 0.00 | 0.00 | 0.00 | 85 | 1019.2 |
| 20260507102530 | 46 | 26 | 0.0 | 0.0 | 0.00 | 0.00 | 0.00 | 85 | 1019.1 |
| 20260507101520 | 46 | 26 | 0.0 | 0.0 | 0.00 | 0.00 | 0.00 | 85 | 1019.1 |
| 20260507100532 | 47 | 26 | 0.0 | 0.0 | 0.00 | 0.00 | 0.00 | 85 | 1019.1 |
| 20260507095526 | 47 | 26 | 0.0 | 0.0 | 0.00 | 0.00 | 0.00 | 85 | 1019.2 |
| 20260507094536 | 47 | 26 | 0.0 | 0.0 | 0.00 | 0.00 | 0.00 | 85 | 1019.3 |
| 20260507093516 | 47 | 26 | 0.0 | 0.0 | 0.00 | 0.00 | 0.00 | 85 | 1019.4 |
| 20260507092522 | 47 | 26 | 0.0 | 0.0 | 0.00 | 0.00 | 0.00 | 85 | 1019.2 |
| 20260507091533 | 46 | 25 | 0.0 | 0.0 | 0.00 | 0.00 | 0.00 | 85 | 1019.3 |
| 20260507090552 | 46 | 26 | 0.0 | 0.0 | 0.00 | 0.00 | 0.00 | 85 | 1019.3 |
| 20260507085521 | 45 | 26 | 0.0 | 0.0 | 0.00 | 0.00 | 0.00 | 84 | 1019.2 |
| 20260507084541 | 45 | 26 | 0.0 | 0.0 | 0.00 | 0.00 | 0.00 | 84 | 1019.3 |
| 20260507083548 | 45 | 26 | 0.0 | 0.0 | 0.00 | 0.00 | 0.00 | 84 | 1019.4 |
| 20260507082519 | 46 | 26 | 0.0 | 0.0 | 0.00 | 0.00 | 0.00 | 84 | 1019.4 |
| 20260507081547 | 46 | 26 | 0.0 | 0.0 | 0.00 | 0.00 | 0.00 | 85 | 1019.4 |
| 20260507080532 | 46 | 26 | 0.0 | 0.0 | 0.00 | 0.00 | 0.00 | 85 | 1019.5 |
| 20260507075517 | 46 | 26 | 0.0 | 0.0 | 0.00 | 0.00 | 0.00 | 85 | 1019.6 |
| 20260507074521 | 46 | 26 | 0.0 | 0.0 | 0.00 | 0.00 | 0.00 | 85 | 1019.6 |
| 20260507073531 | 46 | 25 | 0.0 | 0.0 | 0.00 | 0.00 | 0.00 | 85 | 1019.8 |
| 20260507072522 | 45 | 25 | 0.0 | 0.0 | 0.00 | 0.00 | 0.00 | 85 | 1019.8 |
| 20260507071536 | 45 | 26 | 0.0 | 0.0 | 0.00 | 0.00 | 0.00 | 85 | 1019.8 |
| 20260507070519 | 45 | 25 | 0.0 | 0.0 | 0.00 | 0.00 | 0.00 | 85 | 1019.9 |
| 20260507065525 | 44 | 25 | 0.0 | 0.0 | 0.00 | 0.00 | 0.00 | 85 | 1020.1 |
| 20260507064538 | 44 | 25 | 0.0 | 0.0 | 0.00 | 0.00 | 0.00 | 85 | 1020.1 |
| 20260507063536 | 43 | 25 | 0.0 | 0.0 | 0.00 | 0.00 | 0.00 | 84 | 1019.9 |
| 20260507062526 | 42 | 25 | 0.0 | 0.0 | 0.00 | 0.00 | 0.00 | 83 | 1020.2 |
| 20260507061522 | 42 | 25 | 0.0 | 0.0 | 0.00 | 0.00 | 0.00 | 83 | 1019.9 |
| 20260507060529 | 43 | 25 | 0.0 | 0.0 | 0.00 | 0.00 | 0.00 | 83 | 1020.0 |
| 20260507055518 | 42 | 25 | 0.0 | 0.0 | 0.00 | 0.01 | 0.00 | 82 | 1019.8 |
| 20260507054537 | 43 | 25 | 0.0 | 0.0 | 0.00 | 0.01 | 0.00 | 82 | 1019.7 |
| 20260507053525 | 43 | 25 | 0.0 | 0.0 | 0.00 | 0.01 | 0.00 | 82 | 1019.8 |
| 20260507052532 | 42 | 25 | 0.0 | 0.0 | 0.00 | 0.01 | 0.00 | 81 | 1020.0 |
| 20260507051529 | 43 | 25 | 0.0 | 1.7 | 0.00 | 0.01 | 0.00 | 80 | 1020.1 |
| 20260507050535 | 43 | 25 | 0.0 | 0.9 | 0.00 | 0.01 | 0.00 | 79 | 1019.9 |
| 20260507045527 | 44 | 25 | 0.0 | 0.9 | 0.00 | 0.01 | 0.01 | 79 | 1019.7 |
| 20260507044520 | 44 | 25 | 0.0 | 0.0 | 0.00 | 0.01 | 0.01 | 79 | 1019.6 |
| 20260507043529 | 44 | 25 | 0.0 | 0.0 | 0.00 | 0.01 | 0.01 | 79 | 1019.3 |
| 20260507042533 | 44 | 26 | 0.0 | 0.0 | 0.00 | 0.01 | 0.01 | 77 | 1019.5 |
| 20260507041545 | 44 | 26 | 0.0 | 0.0 | 0.00 | 0.01 | 0.01 | 75 | 1019.5 |
| 20260507040528 | 45 | 26 | 0.0 | 0.0 | 0.00 | 0.01 | 0.01 | 75 | 1019.5 |
| 20260507035545 | 45 | 26 | 0.0 | 0.0 | 0.00 | 0.01 | 0.01 | 74 | 1019.5 |
| 20260507034530 | 46 | 26 | 0.0 | 0.0 | 0.00 | 0.01 | 0.01 | 72 | 1019.6 |
| 20260507033518 | 47 | 26 | 0.0 | 0.0 | 0.00 | 0.01 | 0.01 | 71 | 1019.5 |
| 20260507032532 | 47 | 25 | 0.0 | 0.0 | 0.00 | 0.01 | 0.01 | 69 | 1019.3 |
| 20260507031540 | 48 | 25 | 0.0 | 0.0 | 0.00 | 0.01 | 0.01 | 68 | 1019.2 |
| 20260507030525 | 50 | 25 | 0.0 | 0.0 | 0.00 | 0.01 | 0.01 | 67 | 1019.2 |
| 20260507025540 | 51 | 26 | 0.0 | 0.0 | 0.00 | 0.01 | 0.01 | 63 | 1019.1 |
| 20260507024548 | 53 | 26 | 0.0 | 0.0 | 0.00 | 0.01 | 0.01 | 58 | 1019.1 |
| 20260507023524 | 53 | 25 | 0.0 | 0.0 | 0.00 | 0.01 | 0.01 | 57 | 1019.0 |
| 20260507022538 | 54 | 25 | 0.0 | 0.0 | 0.00 | 0.01 | 0.01 | 57 | 1018.8 |
| 20260507021533 | 54 | 25 | 0.0 | 2.6 | 0.00 | 0.01 | 0.01 | 56 | 1018.7 |
| 20260507020518 | 54 | 25 | 0.0 | 1.7 | 0.00 | 0.01 | 0.01 | 55 | 1018.4 |
| 20260507015523 | 55 | 25 | 0.0 | 0.9 | 0.00 | 0.01 | 0.01 | 55 | 1018.4 |
| 20260507014532 | 55 | 25 | 0.0 | 3.5 | 0.00 | 0.01 | 0.01 | 53 | 1018.2 |
| 20260507013519 | 56 | 25 | 0.9 | 3.5 | 0.00 | 0.01 | 0.01 | 52 | 1018.0 |
| 20260507012528 | 57 | 26 | 0.0 | 1.7 | 0.00 | 0.01 | 0.01 | 51 | 1018.0 |
| 20260507011547 | 58 | 25 | 0.0 | 4.3 | 0.00 | 0.01 | 0.01 | 49 | 1018.0 |
| 20260507010549 | 58 | 25 | 0.9 | 4.3 | 0.00 | 0.01 | 0.01 | 47 | 1018.0 |
| 20260507005521 | 59 | 26 | 0.0 | 4.3 | 0.00 | 0.01 | 0.01 | 45 | 1017.9 |
| 20260507004528 | 59 | 29 | 1.7 | 5.2 | 0.00 | 0.01 | 0.01 | 44 | 1018.0 |
| 20260507003528 | 60 | 25 | 1.7 | 4.3 | 0.00 | 0.01 | 0.01 | 46 | 1017.9 |
| 20260507002528 | 60 | 29 | 1.7 | 3.5 | 0.00 | 0.01 | 0.01 | 45 | 1017.8 |
| 20260507001535 | 60 | 360 | 0.0 | 4.3 | 0.00 | 0.01 | 0.01 | 42 | 1017.7 |
| 20260507000522 | 61 | 360 | 0.9 | 5.2 | 0.00 | 0.01 | 0.01 | 42 | 1017.7 |
| 20260506235539 | 62 | 35 | 1.7 | 6.1 | 0.00 | 0.01 | 0.01 | 39 | 1017.5 |
| 20260506234522 | 62 | 360 | 3.5 | 7.0 | 0.00 | 0.01 | 0.01 | 38 | 1017.5 |
| 20260506233531 | 62 | 360 | 2.6 | 6.1 | 0.00 | 0.01 | 0.01 | 40 | 1017.4 |
| 20260506232518 | 62 | 43 | 1.7 | 6.1 | 0.00 | 0.01 | 0.01 | 40 | 1017.3 |
| 20260506231530 | 62 | 39 | 0.0 | 6.1 | 0.00 | 0.01 | 0.01 | 40 | 1017.1 |
| 20260506230519 | 62 | 360 | 0.9 | 6.1 | 0.00 | 0.01 | 0.01 | 40 | 1017.2 |
| 20260506225531 | 63 | 360 | 4.3 | 8.7 | 0.00 | 0.01 | 0.01 | 38 | 1017.1 |
| 20260506224526 | 63 | 28 | 1.7 | 7.8 | 0.00 | 0.01 | 0.01 | 41 | 1017.0 |
| 20260506223532 | 63 | 360 | 0.9 | 7.0 | 0.00 | 0.01 | 0.01 | 38 | 1017.0 |
| 20260506222519 | 64 | 360 | 2.6 | 6.1 | 0.00 | 0.01 | 0.01 | 38 | 1016.8 |
| 20260506221526 | 64 | 360 | 2.6 | 7.0 | 0.00 | 0.01 | 0.01 | 40 | 1016.7 |
| 20260506220545 | 63 | 360 | 3.5 | 8.7 | 0.00 | 0.01 | 0.01 | 38 | 1016.7 |
| 20260506215528 | 64 | 42 | 3.5 | 8.7 | 0.00 | 0.01 | 0.01 | 39 | 1016.7 |
| 20260506214525 | 63 | 360 | 3.5 | 7.8 | 0.00 | 0.01 | 0.01 | 38 | 1016.8 |
| 20260506213529 | 63 | 42 | 1.7 | 7.8 | 0.00 | 0.01 | 0.01 | 39 | 1016.8 |
| 20260506212535 | 63 | 360 | 3.5 | 8.7 | 0.00 | 0.01 | 0.01 | 38 | 1017.0 |
| 20260506211527 | 63 | 360 | 3.5 | 10.4 | 0.00 | 0.01 | 0.01 | 37 | 1017.0 |
| 20260506210534 | 64 | 360 | 5.2 | 7.8 | 0.00 | 0.01 | 0.01 | 40 | 1017.0 |
| 20260506205526 | 62 | 360 | 4.3 | 8.7 | 0.00 | 0.01 | 0.01 | 41 | 1017.1 |
| 20260506204517 | 62 | 26 | 4.3 | 9.6 | 0.00 | 0.01 | 0.01 | 40 | 1017.4 |
| 20260506203529 | 62 | 360 | 3.5 | 8.7 | 0.00 | 0.01 | 0.01 | 42 | 1017.5 |
| 20260506202534 | 63 | 360 | 4.3 | 7.8 | 0.00 | 0.01 | 0.01 | 44 | 1017.7 |
| 20260506201529 | 62 | 41 | 1.7 | 7.0 | 0.00 | 0.01 | 0.01 | 42 | 1017.8 |
| 20260506200536 | 61 | 40 | 0.0 | 8.7 | 0.00 | 0.01 | 0.01 | 44 | 1018.0 |
| 20260506195526 | 61 | 38 | 5.2 | 7.8 | 0.00 | 0.01 | 0.01 | 45 | 1018.1 |
| 20260506194530 | 61 | 27 | 3.5 | 7.0 | 0.00 | 0.01 | 0.01 | 46 | 1018.1 |
| 20260506193532 | 62 | 360 | 4.3 | 7.8 | 0.00 | 0.01 | 0.01 | 44 | 1018.3 |
| 20260506192522 | 62 | 38 | 4.3 | 9.6 | 0.00 | 0.01 | 0.01 | 45 | 1018.4 |
| 20260506191528 | 62 | 36 | 7.0 | 11.3 | 0.00 | 0.01 | 0.01 | 45 | 1018.3 |
| 20260506190540 | 61 | 36 | 6.1 | 9.6 | 0.00 | 0.01 | 0.01 | 46 | 1018.3 |
| 20260506185527 | 60 | 35 | 5.2 | 10.4 | 0.00 | 0.01 | 0.01 | 49 | 1018.4 |
| 20260506184540 | 61 | 360 | 5.2 | 9.6 | 0.00 | 0.01 | 0.01 | 48 | 1018.5 |
| 20260506183524 | 61 | 360 | 5.2 | 10.4 | 0.00 | 0.01 | 0.01 | 44 | 1018.6 |
| 20260506182527 | 60 | 36 | 4.3 | 9.6 | 0.00 | 0.01 | 0.01 | 50 | 1018.7 |
| 20260506181517 | 60 | 38 | 4.3 | 12.2 | 0.00 | 0.01 | 0.01 | 48 | 1018.7 |
| 20260506180521 | 61 | 38 | 3.5 | 9.6 | 0.00 | 0.01 | 0.01 | 49 | 1018.9 |
| 20260506175531 | 60 | 360 | 5.2 | 8.7 | 0.00 | 0.01 | 0.01 | 51 | 1019.1 |
| 20260506174521 | 60 | 18 | 6.1 | 10.4 | 0.00 | 0.01 | 0.01 | 48 | 1019.1 |
| 20260506173556 | 61 | 360 | 5.2 | 9.6 | 0.00 | 0.01 | 0.01 | 50 | 1018.9 |
| 20260506172520 | 60 | 41 | 5.2 | 10.4 | 0.00 | 0.01 | 0.01 | 47 | 1019.3 |
| 20260506171530 | 60 | 360 | 4.3 | 8.7 | 0.00 | 0.01 | 0.01 | 49 | 1019.3 |
| 20260506170540 | 58 | 360 | 4.3 | 10.4 | 0.00 | 0.01 | 0.01 | 48 | 1019.3 |
| 20260506165522 | 59 | 360 | 5.2 | 11.3 | 0.00 | 0.01 | 0.01 | 46 | 1019.3 |
| 20260506164536 | 59 | 360 | 4.3 | 12.2 | 0.00 | 0.01 | 0.01 | 50 | 1019.0 |
| 20260506163527 | 59 | 40 | 6.1 | 10.4 | 0.00 | 0.01 | 0.01 | 50 | 1019.1 |
| 20260506162533 | 58 | 37 | 5.2 | 9.6 | 0.00 | 0.01 | 0.01 | 51 | 1019.1 |
| 20260506161529 | 58 | 360 | 4.3 | 8.7 | 0.00 | 0.01 | 0.01 | 53 | 1019.4 |
| 20260506160526 | 57 | 30 | 4.3 | 9.6 | 0.00 | 0.01 | 0.01 | 53 | 1019.5 |
| 20260506155532 | 57 | 36 | 5.2 | 10.4 | 0.00 | 0.01 | 0.01 | 55 | 1019.3 |
| 20260506154518 | 57 | 360 | 6.1 | 13.9 | 0.00 | 0.01 | 0.01 | 55 | 1019.0 |